sat.trackr.live / text

‹ back to catalog

O3B FM8

NORAD 40082 · 2014-038D

PAYLOAD ACTIVE UNKNOWN

§ Identity

Operator
Country
O3B
Launch date
2014-07-10
Launch site
FRGUI
Launch vehicle
Mass (kg)
RCS (m²)
3.99

Purposes: comms

External: N2YO · Heavens-Above · Gunter

§ Orbital elements

Epoch: 2026-05-24T17:52:47.985312Z

Period
287.93 min
Inclination
0.0493°
Eccentricity
0.0002738
Mean motion
5.00116027 rev/d
Perigee alt
8,061.9 km
Apogee alt
8,069.8 km
Semi-major
14,444.0 km
B*
0.0000e+0
RAAN
350.1666°
Arg perigee
75.1067°
Mean anomaly
294.7545°
Rev number
21,677

§ Raw data

O3B FM81 40082U 14038D   26144.74499983 -.00000024  00000+0  00000+0 0  99952 40082   0.0493 350.1666 0002738  75.1067 294.7545  5.00116027216776

JSON: /api/v1/satellites/40082 · /tle

For live sub-satellite position, see the globe view (requires WebGL).

§ Visibility from observer

Set your observer location to see the next 7 days of passes ≥ 10°. The values pass through the URL so the page stays shareable.

No JS? Fill the form by hand. The geolocation button needs JavaScript.